Weather History for KSUX - December, 2012

Change the Weather History Date:

Tuesday, December 25, 2012

  Actual Average Record
Temperature  
Mean Temperature 8 °F 20 °F  
Max Temperature 13 °F 30 °F 56 °F (1963)
Min Temperature 2 °F 11 °F -13 °F (1983)
Degree Days  
Heating Degree Days 57 45  
Month to date heating degree days 894 1047  
Since 1 July heating degree days 2366 2523  
Cooling Degree Days 0 0  
Month to date cooling degree days 0 0  
Year to date cooling degree days 1249 869  
Moisture  
Dew Point 0 °F    
Average Humidity 77    
Maximum Humidity 87    
Minimum Humidity 66    
Precipitation  
Precipitation 0.00 in 0.02 in 0.56 in (2009)
Month to date precipitation 1.34 0.67  
Year to date precipitation 23.79 27.61  
Snow  
Snow 0.00 in 0.30 in 8.00 in (2009)
Month to date snowfall 4.2 6.5  
Since 1 July snowfall 4.3 11.9  
Snow Depth 2.00 in    
Sea Level Pressure  
Sea Level Pressure 30.50 in    
Wind  
Wind Speed 11 mph (NNW)    
Max Wind Speed 17 mph    
Max Gust Speed 21 mph    
Visibility 10 miles    
Events      
T = Trace of Precipitation, MM = Missing Value Source: NWS Daily Summary

Daily Weather History Graph

Daily Weather History Graph

Search for Another Location

Airport or City:

Trip Planner

Search our weather history database for the weather conditions in past years. The results will help you decide how hot, cold, wet, or windy it might be!

Date:

Astronomy

Dec. 25, 2012 Rise Set
Actual Time 7:53 AM CST 4:58 PM CST
Civil Twilight 7:21 AM CST 5:30 PM CST
Nautical Twilight 6:45 AM CST 6:05 PM CST
Astronomical Twilight 6:11 AM CST 6:40 PM CST
Moon 3:08 PM CST (12/25) 5:25 AM CST (12/25)
Length of Visible Light 10h 09m
Length of Day
9h 05m
Waxing Gibbous, 94% of the Moon is Illuminated
Dec 25
Waxing Gibbous
Dec 28
Full
Jan 4
Last Quarter
Jan 11
New
Jan 18
First Quarter

Hourly Weather History & Observations

Time (CST) Temp. Windchill Dew Point Humidity Pressure Visibility Wind Dir Wind Speed Gust Speed Precip Events Conditions
12:52 AM 3.9 °F -12.2 °F -2.9 °F 73% 30.41 in 10.0 mi North 11.5 mph - N/A   Clear
1:52 AM 3.0 °F -15.5 °F -2.9 °F 76% 30.42 in 10.0 mi North 15.0 mph - N/A   Clear
2:52 AM 3.0 °F -14.1 °F -4.0 °F 73% 30.43 in 10.0 mi North 12.7 mph - N/A   Clear
3:52 AM 1.9 °F -16.9 °F -4.0 °F 76% 30.43 in 10.0 mi North 15.0 mph - N/A   Clear
4:52 AM 3.0 °F -14.1 °F -4.0 °F 73% 30.45 in 10.0 mi North 12.7 mph - N/A   Clear
5:52 AM 3.0 °F -11.5 °F -2.9 °F 76% 30.47 in 10.0 mi North 9.2 mph - N/A   Clear
6:52 AM 1.9 °F -14.7 °F -2.9 °F 80% 30.50 in 10.0 mi NNW 11.5 mph - N/A   Clear
7:52 AM 1.9 °F -15.5 °F -4.0 °F 76% 30.53 in 10.0 mi NNW 12.7 mph - N/A   Clear
8:52 AM 1.9 °F -15.5 °F -4.0 °F 76% 30.54 in 10.0 mi NNW 12.7 mph - N/A   Clear
9:52 AM 5.0 °F -11.6 °F -2.0 °F 73% 30.58 in 10.0 mi NNW 12.7 mph - N/A   Clear
10:52 AM 8.1 °F -6.2 °F -0.0 °F 70% 30.60 in 10.0 mi NNW 10.4 mph - N/A   Clear
11:52 AM 10.9 °F -3.4 °F 1.9 °F 67% 30.56 in 10.0 mi NNW 11.5 mph - N/A   Clear
12:52 PM 10.9 °F -4.7 °F 3.0 °F 70% 30.53 in 10.0 mi North 13.8 mph - N/A   Clear
1:52 PM 10.9 °F -4.7 °F 3.0 °F 70% 30.49 in 10.0 mi North 13.8 mph - N/A   Clear
2:52 PM 12.0 °F -1.3 °F 3.0 °F 67% 30.51 in 10.0 mi North 10.4 mph - N/A   Clear
3:52 PM 12.0 °F -1.3 °F 3.9 °F 70% 30.55 in 10.0 mi NW 10.4 mph - N/A   Clear
4:52 PM 10.9 °F -2.6 °F 3.9 °F 73% 30.56 in 10.0 mi NNW 10.4 mph - N/A   Partly Cloudy
5:52 PM 10.0 °F -2.9 °F 3.0 °F 73% 30.55 in 10.0 mi North 9.2 mph - N/A   Partly Cloudy
6:52 PM 10.0 °F -1.9 °F 3.9 °F 76% 30.53 in 10.0 mi NNW 8.1 mph - N/A   Mostly Cloudy
7:52 PM 10.0 °F -4.5 °F 3.0 °F 73% 30.50 in 10.0 mi North 11.5 mph - N/A   Clear
8:52 PM 10.0 °F -3.7 °F 3.0 °F 73% 30.48 in 10.0 mi North 10.4 mph - N/A   Mostly Cloudy
9:52 PM 9.0 °F -4.2 °F 1.9 °F 73% 30.48 in 10.0 mi North 9.2 mph - N/A   Mostly Cloudy
10:52 PM 7.0 °F -5.7 °F 1.9 °F 80% 30.47 in 10.0 mi NNW 8.1 mph - N/A   Clear
11:52 PM 6.1 °F -6.8 °F 1.9 °F 83% 30.45 in 10.0 mi NNW 8.1 mph - N/A   Clear